Location: Newark
(59.4564°N, 26.6917°E)
Time: 12:58:16
(UTC+00:00)

Transit 2A Rocket - Visible Passes

Search period start: 13 November 2019 00:00
Search period end: 23 November 2019 00:00
Orbit: 594 x 909 km, 66.7° (Epoch: 13 November)

Date Brightness Start Highest point End Pass type
(mag) Time Alt. Az. Time Alt. Az. Time Alt. Az.
13 Nov 6.2 02:02:59 28° NNE 02:02:59 28° NNE 02:05:52 10° ENE visible
13 Nov 5.1 03:42:53 24° NW 03:45:15 51° NNE 03:49:30 10° ESE visible
14 Nov 7.1 01:21:39 18° NE 01:21:39 18° NE 01:23:04 10° ENE visible
14 Nov 5.4 03:01:34 35° NNW 03:02:33 41° NNE 03:06:41 10° E visible
14 Nov 4.5 04:41:28 13° NW 04:45:22 73° SW 04:49:46 10° SE visible
15 Nov 5.8 02:20:16 35° NNE 02:20:16 35° NNE 02:23:50 10° E visible
15 Nov 4.5 04:00:10 23° NW 04:02:51 81° NE 04:07:14 10° SE visible
16 Nov 6.8 01:38:59 22° NE 01:38:59 22° NE 01:40:59 10° ENE visible
16 Nov 4.8 03:18:53 39° NNW 03:20:15 60° NNE 03:24:35 10° ESE visible
16 Nov 5.2 04:58:48 11° WNW 05:02:40 39° SW 05:06:46 10° SSE visible
17 Nov 7.6 00:57:44 12° ENE 00:57:44 12° ENE 00:58:09 10° ENE visible
17 Nov 5.2 02:37:39 47° NNE 02:37:39 47° NNE 02:41:48 10° E visible
17 Nov 4.7 04:17:34 21° WNW 04:20:15 57° SW 04:24:35 10° SSE visible
18 Nov 6.4 01:56:26 29° ENE 01:56:26 29° ENE 01:58:58 10° E visible
18 Nov 4.4 03:36:21 42° NW 03:37:46 82° SW 03:42:11 10° SE visible
18 Nov 6.1 05:16:33 10° WNW 05:19:45 20° WSW 05:23:00 10° SSW visible
19 Nov 7.4 01:15:16 15° ENE 01:15:16 15° ENE 01:16:07 10° ENE visible
19 Nov 4.5 02:55:10 73° NNE 02:55:13 73° NE 02:59:37 10° ESE visible
19 Nov 5.5 04:35:05 18° WNW 04:37:27 30° WSW 04:41:19 10° S visible
20 Nov 5.9 02:14:02 36° E 02:14:02 36° E 02:16:54 10° ESE visible
20 Nov 4.9 03:53:58 36° W 03:55:06 44° SW 03:59:19 10° SSE visible
21 Nov 7.1 01:32:58 17° E 01:32:58 17° E 01:34:06 10° E visible
21 Nov 4.5 03:12:53 64° SSW 03:12:53 64° SSW 03:17:03 10° SE visible
21 Nov 6.3 04:52:48 13° W 04:54:28 16° WSW 04:57:05 10° SSW visible
22 Nov 5.7 02:31:51 37° SE 02:31:51 37° SE 02:34:35 10° SE visible
22 Nov 5.7 04:11:47 23° WSW 04:12:14 23° WSW 04:15:45 10° S visible
